Location: Sungai Bunut
(2.6333°N, 113.7333°E)
Time: 10:05:44
(UTC+00:00)

A-11 Canister half - Pass Details

Date: 05 December 2023
Orbit: 1526 x 1682 km, 47.3° (Epoch: 04 March)

Event Time Altitude Azimuth Distance (km) Brightness Sun altitude
Exits shadow 18:51:16 30° 68° (ENE) 2,518 10.2 -47.4°
Drops below altitude 10° 18:57:23 10° 107° (ESE) 3,713 11.5 -46.1°
Sets 19:00:51 0° 117° (ESE) 4,685 12.3 -45.4°
